When you browse on this site, cookies collect data to enhance your experience and personalize the content and advertising you see.
Visit our Privacy Policy to learn more. By continuing to use the site, you agree to this use of cookies and data.
  • In Hungary
  • List of Countries
  • For 7 days
  • Water Temperature
  • Satellite Maps
  • Weather Map
  • News
  • Weather Widgets
  • user-avatar
    Login

    Hourly Weather Novogrigorevka

    Today, 20 January, Sunday

    Time Temperature Precipitation Wind Pressure Humidity
    00:00 -9°C° 0 mm 1 mps 744 mmHg 94%
    01:00 -9°C° 0 mm 2 mps 744 mmHg 95%
    02:00 -9°C° 0.1 mm 2 mps 744 mmHg 95%
    03:00 -9°C° 0.1 mm 2 mps 744 mmHg 95%
    04:00 -9°C° 0.1 mm 2 mps 743 mmHg 95%
    05:00 -9°C° 0.1 mm 3 mps 743 mmHg 95%
    06:00 -9°C° 0.1 mm 3 mps 743 mmHg 95%
    07:00 -9°C° 0.1 mm 3 mps 743 mmHg 95%
    08:00 -10°C° 0.1 mm 4 mps 742 mmHg 95%
    09:00 -9°C° 0.1 mm 4 mps 742 mmHg 95%
    10:00 -10°C° 0.1 mm 5 mps 742 mmHg 95%
    11:00 -8°C° 0.1 mm 5 mps 742 mmHg 95%
    12:00 -7°C° 0.1 mm 5 mps 742 mmHg 95%
    13:00 -7°C° 0.1 mm 5 mps 742 mmHg 94%
    14:00 -6°C° 0.1 mm 6 mps 743 mmHg 93%
    15:00 -6°C° 0.1 mm 6 mps 743 mmHg 91%
    16:00 -6°C° 0.1 mm 7 mps 743 mmHg 89%
    17:00 -8°C° 0 mm 6 mps 744 mmHg 89%
    18:00 -10°C° 0 mm 5 mps 745 mmHg 90%
    19:00 -12°C° 0 mm 5 mps 746 mmHg 90%
    20:00 -15°C° 0 mm 4 mps 747 mmHg 91%
    21:00 -17°C° 0 mm 4 mps 747 mmHg 92%
    22:00 -18°C° 0 mm 3 mps 748 mmHg 93%
    23:00 -19°C° 0 mm 3 mps 748 mmHg 95%

    Tomorrow, 21 January, Monday

    Time Temperature Precipitation Wind Pressure Humidity
    00:00 -21°C° 0 mm 3 mps 749 mmHg 97%
    01:00 -19°C° 0 mm 2 mps 749 mmHg 98%
    02:00 -19°C° 0 mm 2 mps 750 mmHg 98%
    03:00 -19°C° 0 mm 2 mps 751 mmHg 98%
    04:00 -17°C° 0 mm 1 mps 751 mmHg 99%
    05:00 -17°C° 0 mm 1 mps 751 mmHg 99%
    06:00 -18°C° 0 mm 1 mps 752 mmHg 99%
    07:00 -18°C° 0 mm 1 mps 752 mmHg 99%
    08:00 -20°C° 0 mm 2 mps 752 mmHg 99%
    09:00 -20°C° 0 mm 2 mps 753 mmHg 98%
    10:00 -20°C° 0 mm 2 mps 753 mmHg 98%
    11:00 -19°C° 0 mm 2 mps 753 mmHg 97%
    12:00 -18°C° 0 mm 2 mps 753 mmHg 96%
    13:00 -18°C° 0 mm 3 mps 753 mmHg 95%
    14:00 -18°C° 0 mm 3 mps 752 mmHg 95%
    15:00 -19°C° 0 mm 3 mps 752 mmHg 94%
    16:00 -19°C° 0 mm 3 mps 752 mmHg 94%
    17:00 -19°C° 0 mm 3 mps 752 mmHg 94%
    18:00 -21°C° 0 mm 3 mps 752 mmHg 93%
    19:00 -21°C° 0 mm 3 mps 751 mmHg 93%
    20:00 -22°C° 0 mm 4 mps 751 mmHg 92%
    21:00 -20°C° 0 mm 4 mps 750 mmHg 91%
    22:00 -20°C° 0 mm 4 mps 750 mmHg 90%
    23:00 -20°C° 0 mm 5 mps 749 mmHg 87%

    Day after tomorrow, 22 January, Tuesday

    Time Temperature Precipitation Wind Pressure Humidity
    00:00 -20°C° 0 mm 5 mps 749 mmHg 85%
    01:00 -20°C° 0 mm 6 mps 748 mmHg 83%
    02:00 -18°C° 0 mm 6 mps 747 mmHg 81%
    03:00 -18°C° 0 mm 7 mps 747 mmHg 80%
    04:00 -15°C° 0 mm 7 mps 746 mmHg 78%
    05:00 -16°C° 0.1 mm 8 mps 746 mmHg 80%
    06:00 -15°C° 0.1 mm 8 mps 745 mmHg 81%
    07:00 -14°C° 0.1 mm 9 mps 744 mmHg 82%
    08:00 -12°C° 0.6 mm 9 mps 744 mmHg 86%
    09:00 -10°C° 0.6 mm 10 mps 743 mmHg 89%
    10:00 -8°C° 0.6 mm 10 mps 743 mmHg 92%
    11:00 -7°C° 0.5 mm 10 mps 743 mmHg 92%
    12:00 -7°C° 0.5 mm 10 mps 742 mmHg 91%
    13:00 -6°C° 0.5 mm 11 mps 742 mmHg 91%
    14:00 -5°C° 0.7 mm 10 mps 742 mmHg 92%
    15:00 -5°C° 0.7 mm 9 mps 742 mmHg 92%
    16:00 -4°C° 0.7 mm 8 mps 742 mmHg 93%
    17:00 -7°C° 0.4 mm 7 mps 742 mmHg 93%
    18:00 -9°C° 0.4 mm 6 mps 743 mmHg 93%
    19:00 -11°C° 0.4 mm 5 mps 743 mmHg 93%
    20:00 -12°C° 0 mm 4 mps 744 mmHg 94%
    21:00 -15°C° 0 mm 3 mps 744 mmHg 95%
    22:00 -17°C° 0 mm 3 mps 745 mmHg 96%
    23:00 -17°C° 0 mm 3 mps 745 mmHg 96%

    23 January, Wednesday

    Time Temperature Precipitation Wind Pressure Humidity
    00:00 -17°C° 0 mm 2 mps 746 mmHg 96%
    01:00 -18°C° 0 mm 2 mps 746 mmHg 96%
    02:00 -19°C° 0 mm 2 mps 747 mmHg 97%
    03:00 -19°C° 0 mm 2 mps 747 mmHg 97%
    04:00 -22°C° 0 mm 3 mps 748 mmHg 98%
    05:00 -23°C° 0 mm 3 mps 748 mmHg 98%
    06:00 -24°C° 0 mm 3 mps 748 mmHg 97%
    07:00 -25°C° 0 mm 3 mps 749 mmHg 97%
    08:00 -26°C° 0 mm 3 mps 749 mmHg 96%
    09:00 -26°C° 0 mm 3 mps 750 mmHg 95%
    10:00 -26°C° 0 mm 3 mps 750 mmHg 94%
    11:00 -25°C° 0 mm 3 mps 751 mmHg 94%
    12:00 -25°C° 0 mm 3 mps 751 mmHg 94%
    13:00 -24°C° 0 mm 3 mps 751 mmHg 94%
    14:00 -25°C° 0 mm 3 mps 751 mmHg 94%
    15:00 -26°C° 0 mm 3 mps 751 mmHg 95%
    16:00 -26°C° 0 mm 3 mps 752 mmHg 95%
    17:00 -27°C° 0 mm 3 mps 752 mmHg 96%
    18:00 -29°C° 0 mm 3 mps 753 mmHg 96%
    19:00 -30°C° 0 mm 3 mps 753 mmHg 96%
    20:00 -28°C° 0 mm 2 mps 753 mmHg 95%
    21:00 -28°C° 0 mm 2 mps 754 mmHg 95%
    22:00 -29°C° 0 mm 2 mps 754 mmHg 95%
    23:00 -29°C° 0 mm 2 mps 754 mmHg 94%

    24 January, Thursday

    Time Temperature Precipitation Wind Pressure Humidity
    00:00 -29°C° 0 mm 2 mps 755 mmHg 94%
    01:00 -29°C° 0 mm 2 mps 755 mmHg 94%
    02:00 -29°C° 0 mm 2 mps 755 mmHg 93%
    03:00 -29°C° 0 mm 2 mps 756 mmHg 93%
    04:00 -29°C° 0 mm 2 mps 756 mmHg 92%
    05:00 -27°C° 0 mm 1 mps 756 mmHg 92%
    06:00 -27°C° 0 mm 1 mps 757 mmHg 92%
    07:00 -27°C° 0 mm 1 mps 757 mmHg 92%
    08:00 -27°C° 0 mm 1 mps 757 mmHg 91%
    09:00 -25°C° 0 mm 0 mps 758 mmHg 90%
    10:00 -24°C° 0 mm 0 mps 758 mmHg 89%
    11:00 -23°C° 0 mm 0 mps 758 mmHg 89%
    12:00 -22°C° 0 mm 0 mps 758 mmHg 89%
    13:00 -20°C° 0 mm 1 mps 758 mmHg 88%
    14:00 -21°C° 0 mm 1 mps 758 mmHg 88%
    15:00 -21°C° 0 mm 1 mps 759 mmHg 87%
    16:00 -22°C° 0 mm 1 mps 759 mmHg 87%
    17:00 -22°C° 0 mm 1 mps 759 mmHg 87%
    18:00 -23°C° 0 mm 1 mps 759 mmHg 86%
    19:00 -23°C° 0 mm 1 mps 759 mmHg 86%
    20:00 -26°C° 0 mm 2 mps 759 mmHg 85%
    21:00 -26°C° 0 mm 2 mps 759 mmHg 84%
    22:00 -26°C° 0 mm 2 mps 759 mmHg 84%
    23:00 -26°C° 0 mm 2 mps 759 mmHg 83%

    25 January, Friday

    Time Temperature Precipitation Wind Pressure Humidity
    00:00 -26°C° 0 mm 2 mps 758 mmHg 82%
    01:00 -25°C° 0 mm 2 mps 758 mmHg 82%
    02:00 -25°C° 0 mm 2 mps 758 mmHg 81%
    03:00 -25°C° 0 mm 2 mps 758 mmHg 80%
    04:00 -25°C° 0 mm 2 mps 758 mmHg 79%
    05:00 -27°C° 0 mm 3 mps 758 mmHg 79%
    06:00 -27°C° 0 mm 3 mps 757 mmHg 79%
    07:00 -27°C° 0 mm 3 mps 757 mmHg 79%
    08:00 -26°C° 0 mm 3 mps 757 mmHg 80%
    09:00 -26°C° 0 mm 3 mps 757 mmHg 80%
    10:00 -25°C° 0 mm 2 mps 757 mmHg 81%
    11:00 -24°C° 0 mm 3 mps 757 mmHg 81%
    12:00 -23°C° 0 mm 3 mps 757 mmHg 81%
    13:00 -21°C° 0 mm 3 mps 756 mmHg 81%
    14:00 -21°C° 0 mm 3 mps 756 mmHg 82%
    15:00 -21°C° 0 mm 3 mps 756 mmHg 84%
    16:00 -19°C° 0 mm 2 mps 755 mmHg 85%
    17:00 -19°C° 0 mm 2 mps 755 mmHg 85%
    18:00 -19°C° 0 mm 3 mps 755 mmHg 84%
    19:00 -19°C° 0 mm 3 mps 755 mmHg 84%
    20:00 -19°C° 0 mm 3 mps 755 mmHg 84%
    21:00 -18°C° 0 mm 3 mps 755 mmHg 84%
    22:00 -18°C° 0 mm 3 mps 754 mmHg 84%
    23:00 -18°C° 0 mm 3 mps 754 mmHg 85%
    Show more